Location: Chulloonawick
(62.9461°N, 164.1722°W)
Time: 01:42:36
(UTC+00:00)

OTV 5 (USA 277) - Pass Details

Date: 19 August 2019
Orbit: 310 x 324 km, 54.5° (Epoch: 08 October)

Event Time Altitude Azimuth Distance (km) Brightness Sun altitude
Exits shadow 14:03:32 - 221° (SW) 1,265 ? -6.5°
Reaches altitude 10° 14:03:59 10° 211° (SSW) 1,209 ? -6.4°
Maximum altitude 14:04:32 10° 200° (SSW) 1,185 ? -6.4°
Drops below altitude 10° 14:05:05 10° 188° (S) 1,209 ? -6.4°
Sets 14:08:21 0° 144° (SE) 2,037 ? -6.1°
